Weather in Tekkekoy

Turkey     41°12′33″N   36°27′34″E
temp.,
°C
wind,
m/s
gust,
m/s
humid.,
%
clouds,
%
prec.,
mm/h
press.,
hPa
HPBL,
m
20 june, sun
sun2000:00+19wsw22790 0.0 101127
03:00+18s22740 0.0 101040
06:00+18ssw22700 0.0 101141
09:00+21n11600 0.0 1011248
12:00+22n32650 0.0 1012413
15:00+23n32640 0.0 1012465
18:00+22n11660 0.0 1011260
21:00+19wsw00810 0.0 101211
21 june, mon
mon2100:00+18sw21770 0.0 101135
03:00+17sw21760 0.0 101044
06:00+18sw11750 0.0 101052
09:00+21nnw22680 0.0 1011373
12:00+22n22690 0.0 1011469
15:00+22n338112 0.0 1010437
18:00+21nnw22837 0.0 1010315
21:00+19wnw229010 0.0 1012127
22 june, tue
tue2200:00+19sw11895 0.1 101182
03:00+18s22880 0.1 101146
06:00+18sw11850 0.0 101153
09:00+21n11753 0.0 1012410
12:00+22n32747 0.0 1012536
15:00+22n44751 0.0 1012444
18:00+21nnw23806 0.0 1013435
21:00+20wsw348890 0.3 1014159
23 june, wed
wed2300:00+18se339059 0.0 101389
03:00+18ssw11862 0.0 101337
06:00+19sw11822 0.0 101451
09:00+22n11710 0.0 1014392
12:00+22n32700 0.0 1014473
15:00+23n33710 0.0 1014443
18:00+22n1273100 0.0 1015270
21:00+20ssw2282100 0.0 101629
24 june, thu
thu2400:00+20ssw118299 0.0 101411
03:00+19se118230 0.0 101533
06:00+19ssw118012 0.0 101535
09:00+23n11661 0.0 1015336
12:00+23n33661 0.0 1015435
15:00+23n22670 0.0 1015387
18:00+22nnw23700 0.0 1015231
21:00+20sw11810 0.0 101615